Weather Roundup
Issued by NWS Springfield, MO

Home | Current Version | Previous Version | Text Only | Print | Product List | Glossary On
Versions: 1 2 3 4 5 6 7 8 9 10 11 12 13 14 15 16 17 18 19 20 21 22 23 24 25 26 27 28 29 30 31 32 33 34 35 36 37 38 39 40 41 42 43 44 45 46 47 48 49 50
000
NZUS99 KSGF 282007
HRRSGF

HOURLY WEATHER
NATIONAL WEATHER SERVICE SPRINGFIELD MO
300 PM CDT SUN MAY 28 2017

......SGF CWA......

CITY           SKY/WX    TMP DP  RH WIND       PRES   REMARKS
SPRINGFIELD    MOSUNNY   76  58  53 NW12G20   29.97S
JOPLIN         MOSUNNY   79  58  48 NW16G22   30.00F
WEST PLAINS    PTSUNNY   75  62  64 W9        29.94R
ROLLA          MOSUNNY   75  60  59 NW16      29.91R
OSAGE BEACH    MOSUNNY   76  58  53 W9G16     29.94S
BRANSON        PTSUNNY   75  57  53 NW14G24   29.99R

......SURROUNDING SGF CWA......

CITY           SKY/WX    TMP DP  RH WIND       PRES   REMARKS
CHANUTE        SUNNY     81  50  33 W14       30.00F
PARSONS        MOSUNNY   82  51  34 N9G18     30.01F
COFFEYVILLE    MOSUNNY   81  56  42 VRB6G18   30.00F
EMPORIA        SUNNY     79  49  34 W15G22    30.00S
GROVE OK       MOSUNNY   79  59  50 NW7       30.01F
ROGERS AR      MOSUNNY   76  59  55 NW13      30.01S
SILOAM SPRINGS MOSUNNY   75  57  53 NW12G17   30.01S
HARRISON AR    MOSUNNY   77  59  53 NW9G20    29.98R
NEAR YELLVILLE MOSUNNY   79  61  53 NW14G20   29.92R

......KANSAS AND MISSOURI......

CITY           SKY/WX    TMP DP  RH WIND       PRES   REMARKS
KANSAS CTY INT MOSUNNY   79  53  40 W16G22    29.94S
DOWNTOWN KC    MOSUNNY   81  51  35 W15       29.92F
COLUMBIA       SUNNY     77  55  46 W15G22    29.91S
SEDALIA        SUNNY     78  58  49 W10G17    29.93F
ST JOSEPH      MOSUNNY   81  50  33 W14       29.93F
ST LOUIS       PTSUNNY   80  61  52 NW13G24   29.85R
SPIRIT OF STL  PTSUNNY   77  61  57 NW10      29.85R
KIRKSVILLE     PTSUNNY   80  51  36 NW18G26   29.87F
WICHITA        MOSUNNY   82  47  29 NW14G21   30.03F
TOPEKA         MOSUNNY   82  56  40 W12       29.95F
OLATHE         MOSUNNY   79  50  36 NW14G22   29.95F

......TENNESSEE......

CITY           SKY/WX    TMP DP  RH WIND       PRES   REMARKS
MEMPHIS        PTSUNNY   80  68  66 W13G20    29.92S
NASHVILLE      CLOUDY    79  61  53 W10       29.90S

......ARKANSAS.......

CITY           SKY/WX    TMP DP  RH WIND       PRES   REMARKS
FAYETTEVILLE   MOSUNNY   77  60  55 NW10      30.00S
FT SMITH       PTSUNNY   82  62  50 NW14      29.96S
LITTLE ROCK    CLOUDY    82  69  64 W15       29.93S

......OKLAHOMA.......

CITY           SKY/WX    TMP DP  RH WIND       PRES   REMARKS
TULSA          MOSUNNY   81  60  48 NW8       29.99F
PONCA CITY     SUNNY     83  47  28 NW8       30.02F
MCALESTER      SUNNY     83  63  50 N10G18    30.01S
OKLAHOMA CITY  MOSUNNY   81  55  40 N12G18    30.04F

......IOWA............

CITY           SKY/WX    TMP DP  RH WIND       PRES   REMARKS
DES MOINES     MOSUNNY   79  47  32 NW14      29.83F
QUAD CITIES    MOSUNNY   79  56  45 W16       29.77F

......ILLINOIS........

CITY           SKY/WX    TMP DP  RH WIND       PRES   REMARKS
QUINCY         MOSUNNY   78  53  41 W13       29.84S
CHICAGO        PTSUNNY   75  56  51 NW12      29.72F




USA.gov is the U.S. government's official web portal to all federal, state and local government web resources and services.